Date,TemperatureHighF,TemperatureAvgF,TemperatureLowF,DewpointHighF,DewpointAvgF,DewpointLowF,HumidityHigh,HumidityAvg,HumidityLow,PressureMaxIn,PressureMinIn,WindSpeedMaxMPH,WindSpeedAvgMPH,GustSpeedMaxMPH,PrecipitationSumIn
2013-1-1,30.7,27.2,19.8,24.0,17.3,9.5,78,66,54,29.87,29.78,22,7,28,0.00
2013-1-2,24.3,19.1,4.3,13.9,9.3,-4.5,81,65,58,30.22,29.96,17,5,25,0.00
2013-1-3,19.1,10.8,-0.2,14.6,-0.7,-12.0,85,60,30,30.21,30.06,17,3,20,0.00
2013-1-4,33.9,26.6,18.5,19.7,17.8,14.8,86,70,53,30.06,29.88,14,3,22,0.00
2013-1-5,33.9,28.2,21.2,21.8,17.4,12.2,76,64,44,30.29,29.89,21,5,34,0.00
2013-1-6,34.5,28.4,21.3,26.3,22.2,15.9,91,78,68,30.24,29.99,10,1,13,0.01
2013-1-7,33.9,27.0,17.9,27.5,19.6,12.2,83,73,58,30.42,30.02,15,3,16,0.00
2013-1-8,41.5,29.4,17.9,23.6,20.2,13.4,87,70,42,30.42,30.32,13,3,16,0.00
2013-1-9,40.4,35.1,26.3,31.5,23.4,18.2,81,63,46,30.42,30.04,25,3,30,0.00
2013-1-10,39.2,34.0,27.5,29.1,21.5,19.2,77,60,51,30.58,30.10,39,6,39,0.00
2013-1-11,33.7,30.2,25.3,31.5,24.1,19.1,96,78,58,30.57,30.23,8,1,0,0.21
2013-1-12,42.3,36.0,31.8,40.0,35.0,30.5,97,96,91,30.24,30.16,4,0,0,0.03
2013-1-13,44.3,38.3,34.0,43.2,37.7,33.5,98,97,94,30.18,30.02,7,0,0,0.01
2013-1-14,48.4,38.6,30.1,47.9,33.3,21.5,98,82,51,30.31,29.92,19,3,24,0.06
2013-1-15,32.9,28.8,24.9,22.8,21.1,19.0,84,73,61,30.38,30.25,12,2,16,0.00
2013-1-16,30.6,27.4,24.6,29.0,25.0,19.3,97,91,72,30.29,29.86,2,0,0,0.00
2013-1-17,34.8,27.7,18.9,26.3,19.9,3.9,91,73,51,30.15,29.88,15,2,22,0.00
2013-1-18,18.8,13.3,8.8,5.7,-1.1,-8.7,72,52,38,30.47,30.08,17,3,22,0.00
2013-1-19,41.7,30.5,14.0,23.4,16.3,4.8,68,56,41,30.38,29.88,13,3,18,0.00
2013-1-20,45.8,32.2,17.3,31.1,19.4,6.6,84,60,37,29.98,29.59,22,4,28,0.00
2013-1-21,21.5,16.1,11.0,14.6,7.4,1.8,93,69,48,30.09,29.83,14,1,17,0.00
2013-1-22,15.5,10.7,3.7,12.3,0.2,-6.1,91,63,39,30.13,29.81,15,3,19,0.00
2013-1-23,6.2,1.5,-3.4,-4.0,-9.9,-12.8,69,55,41,30.21,30.11,18,3,19,0.00
2013-1-24,10.5,3.3,-3.1,-7.8,-10.2,-12.0,63,50,38,30.34,30.16,24,6,32,0.00
2013-1-25,17.0,7.9,0.7,7.0,-6.0,-12.0,88,52,29,30.41,30.13,23,2,25,0.00
2013-1-26,14.7,9.2,3.6,5.3,0.5,-3.2,87,68,48,30.34,30.09,16,3,25,0.00
2013-1-27,20.8,13.8,8.3,2.1,-0.2,-2.8,72,54,36,30.54,30.33,20,3,20,0.00
2013-1-28,22.2,18.1,11.8,19.2,9.7,-1.0,93,71,40,30.53,30.07,7,0,0,0.00
2013-1-29,29.0,22.7,21.0,26.4,20.9,19.3,94,93,90,30.23,30.07,2,0,0,0.00
2013-1-30,50.9,45.8,34.6,50.1,45.2,33.8,98,97,96,29.96,29.40,10,2,13,0.56
2013-1-31,55.0,37.0,21.3,53.9,30.5,12.4,98,78,51,29.60,28.96,34,6,34,1.09
2013-2-1,23.2,18.9,13.5,15.4,8.4,2.9,84,63,50,30.13,29.60,20,5,28,0.00
2013-2-2,16.4,10.8,6.2,12.2,0.8,-2.6,84,64,54,30.26,30.10,17,4,23,0.00
2013-2-4,20.6,16.8,12.5,12.6,6.2,4.7,79,63,52,29.98,29.85,19,4,25,0.00
2013-2-5,27.0,18.9,13.2,17.5,11.0,6.0,89,71,51,30.06,29.97,7,1,0,0.00
2013-2-6,29.5,22.2,14.1,21.3,12.3,-0.6,93,68,39,30.35,29.95,19,3,22,0.00
2013-2-7,25.2,17.9,9.2,6.4,3.1,-1.6,75,53,38,30.57,30.34,11,1,15,0.00
2013-2-8,22.5,19.5,16.1,20.3,13.9,4.4,92,80,51,30.49,29.88,19,4,22,0.00
2013-2-9,18.5,15.2,11.0,13.5,1.9,-7.0,88,56,34,30.32,29.82,27,10,31,0.00
2013-2-10,39.4,21.2,8.9,6.1,-2.2,-6.8,55,37,15,30.52,30.32,10,2,0,0.00
2013-2-11,37.4,35.3,32.9,36.7,33.6,28.9,98,94,85,29.73,29.70,19,3,20,0.25
2013-2-12,35.9,32.5,28.8,29.1,24.6,18.7,86,72,62,29.92,29.68,22,6,33,0.00
2013-2-13,36.5,29.7,27.5,21.8,20.1,17.8,76,67,50,29.91,29.75,13,2,17,0.00
2013-2-14,39.7,30.1,23.1,21.5,19.0,15.5,75,64,43,30.01,29.75,10,2,15,0.00
2013-2-15,47.2,35.5,25.6,27.5,24.2,20.1,88,65,43,30.00,29.94,15,2,18,0.00
2013-2-16,32.8,27.1,21.5,25.2,17.2,6.2,86,67,52,30.01,29.80,13,4,17,0.00
2013-2-17,21.5,15.1,6.9,6.6,0.3,-3.2,62,51,37,29.81,29.58,32,10,36,0.00
2013-2-18,22.1,13.2,4.6,2.7,-3.3,-6.4,64,48,30,30.24,29.81,37,8,38,0.00
2013-2-19,37.5,26.7,17.6,32.3,12.4,2.6,92,55,38,30.23,29.81,15,1,15,0.05
2013-2-20,27.4,22.0,19.2,15.4,10.8,7.7,75,62,46,29.83,29.71,28,8,33,0.00
2013-2-21,22.2,18.5,15.6,15.2,9.8,5.5,79,68,58,30.36,29.81,27,8,30,0.00
2013-2-22,35.5,27.0,16.5,22.1,17.5,11.2,86,68,48,30.47,30.34,14,2,15,0.00
2013-2-23,30.5,28.5,26.3,29.0,26.0,22.1,96,90,78,30.34,29.95,9,1,0,0.00
2013-2-24,33.9,30.6,28.3,32.2,29.2,25.5,97,94,89,29.96,29.78,12,3,20,0.09
2013-2-25,34.5,29.8,25.7,27.6,25.1,22.6,91,83,71,30.29,29.96,18,3,18,0.05
2013-2-26,36.1,31.2,26.5,28.5,25.9,23.8,90,81,69,30.37,30.17,8,2,13,0.05
2013-2-27,32.1,30.4,28.8,31.3,29.3,25.6,97,96,85,30.17,29.66,12,4,17,0.00
2013-2-28,38.2,32.1,28.9,36.9,31.2,28.2,98,97,93,29.66,29.59,6,0,0,0.27
2013-3-1,37.2,33.0,28.4,31.6,27.4,22.0,94,80,65,29.75,29.60,15,4,16,0.13
2013-3-2,30.5,27.8,26.9,24.5,23.6,22.6,87,84,77,29.76,29.73,13,5,19,0.00
2013-3-5,32.9,31.6,30.6,26.2,25.7,24.9,82,78,73,30.13,30.09,2,0,0,0.07
2013-3-6,32.9,30.8,28.5,30.1,27.5,24.3,95,87,77,30.16,30.08,19,7,27,0.01
2013-3-7,32.1,28.6,25.8,28.6,25.8,23.4,95,89,75,30.15,30.09,17,6,24,0.00
2013-3-8,37.8,31.8,26.7,30.9,25.7,21.5,96,80,55,30.27,30.03,18,5,19,0.03
2013-3-9,53.1,41.1,30.7,22.5,15.4,6.1,64,38,16,30.36,30.25,10,3,13,0.02
2013-3-10,52.2,39.3,26.5,30.1,23.7,18.4,79,55,30,30.41,30.28,8,2,0,0.00
2013-3-11,46.6,38.4,29.3,37.9,31.6,27.5,93,78,52,30.30,30.12,12,2,18,0.00
2013-3-12,48.3,44.0,35.9,47.2,42.5,31.5,97,94,84,30.13,29.72,15,4,25,1.19
2013-3-13,41.3,34.7,29.2,31.6,23.7,17.0,86,66,40,29.85,29.78,12,4,25,0.00
2013-3-14,29.2,21.8,17.6,20.3,11.8,6.0,84,65,52,29.90,29.81,15,5,22,0.00
2013-3-15,34.4,24.9,15.6,26.8,14.6,2.7,91,67,35,29.92,29.70,18,5,22,0.00
2013-3-16,33.3,25.6,17.6,21.8,11.8,4.6,78,57,31,29.93,29.76,13,2,19,0.02
2013-3-17,29.8,22.8,13.7,13.4,6.3,0.7,78,51,30,30.36,29.93,19,4,24,0.00
2013-3-18,33.6,22.4,10.2,20.8,3.3,-2.5,91,46,23,30.50,30.22,7,1,12,0.00
2013-3-19,30.1,26.2,22.5,29.1,24.9,20.5,96,95,91,30.21,29.74,13,3,18,0.00
2013-3-20,32.1,24.4,19.5,23.4,17.9,15.4,94,77,57,29.86,29.76,14,2,24,0.03
2013-3-21,33.4,23.4,13.2,15.7,11.5,7.1,90,63,35,29.86,29.67,12,3,14,0.03
2013-3-22,32.1,24.7,19.7,22.2,15.8,9.9,83,69,56,29.83,29.69,15,4,23,0.00
2013-3-23,34.4,29.2,24.0,20.8,18.2,15.8,82,64,50,29.89,29.77,15,6,24,0.00
2013-3-24,39.0,31.5,25.1,22.1,20.3,18.6,76,63,49,29.91,29.79,14,4,19,0.00
2013-3-25,38.3,31.7,25.3,26.7,22.6,19.1,81,69,54,29.82,29.56,13,3,17,0.00
2013-3-26,39.5,34.3,30.3,26.7,22.5,17.6,85,63,43,29.86,29.63,11,3,18,0.00
2013-3-27,45.0,37.0,31.0,29.6,23.0,18.1,78,57,43,29.93,29.84,12,5,23,0.00
2013-3-28,44.3,38.8,31.6,31.5,29.9,28.3,88,71,56,30.10,29.97,10,3,16,0.00
2013-3-29,45.7,39.7,33.7,31.4,29.1,25.9,80,66,50,30.12,30.06,13,5,20,0.00
2013-3-30,48.4,39.7,33.0,28.7,22.7,16.0,78,54,29,30.15,30.08,10,3,18,0.00
2013-3-31,51.1,43.0,34.2,35.2,24.6,16.0,95,52,31,30.16,29.77,14,4,19,0.07
2013-4-1,51.4,36.5,26.2,40.1,28.2,10.1,96,74,42,29.84,29.59,24,5,31,0.20
2013-4-2,31.0,26.1,20.7,18.7,14.1,9.9,86,61,43,29.99,29.84,17,5,31,0.00
2013-4-3,35.5,30.3,22.7,13.5,11.2,8.7,62,45,33,30.19,30.04,15,8,27,0.00
2013-4-4,49.7,40.3,26.7,21.2,15.1,11.6,60,37,24,30.35,30.06,10,3,12,0.00
2013-4-5,50.2,40.3,29.4,26.2,21.1,14.4,76,49,26,30.02,29.76,12,3,25,0.00
2013-4-6,39.6,33.6,24.4,11.0,7.1,2.8,49,33,21,30.36,30.17,11,4,20,0.00
2013-4-7,51.7,38.7,29.2,36.4,22.0,5.9,91,53,33,30.35,30.00,17,3,23,0.05
2013-4-8,59.2,47.5,36.5,38.0,33.3,27.9,94,61,32,30.12,30.00,12,3,19,0.00
2013-4-9,56.8,50.2,41.1,47.8,40.4,35.2,94,70,54,30.06,29.90,14,3,20,0.04
2013-4-10,56.3,48.7,42.3,48.7,45.0,38.7,97,88,70,30.02,29.87,4,1,0,0.42
2013-4-11,46.0,40.3,32.2,45.2,35.7,26.9,97,84,65,30.16,29.88,9,3,0,0.09
2013-4-12,32.8,31.0,29.8,30.9,29.7,28.2,97,95,83,30.17,29.87,9,2,19,0.09
2013-4-13,45.1,37.0,30.5,36.6,32.9,29.8,97,86,65,30.00,29.85,4,1,13,0.66
2013-4-14,42.7,37.6,32.8,33.4,28.1,22.8,94,70,50,30.27,29.97,14,3,20,0.00
2013-4-15,54.9,42.5,31.3,33.6,28.3,23.1,76,58,41,30.42,30.27,8,2,12,0.00
2013-4-16,49.2,40.7,36.7,39.8,32.1,27.9,79,71,64,30.40,30.35,8,3,14,0.00
2013-4-17,45.6,45.6,45.6,39.5,39.5,39.5,79,79,79,30.21,30.21,7,7,0,0.00
2013-4-18,56.5,50.4,42.2,43.6,32.8,28.0,89,52,37,30.43,30.14,14,5,22,0.00
2013-4-19,67.0,57.6,45.9,60.6,54.1,43.5,97,88,75,30.14,29.62,15,4,23,0.14
2013-4-20,50.1,41.9,31.2,46.2,31.3,19.3,95,68,39,30.29,29.67,16,5,22,0.33
2013-4-21,47.7,36.2,26.8,21.7,16.3,10.8,67,46,24,30.71,30.30,12,4,21,0.00
2013-4-22,50.8,39.5,30.7,28.1,20.1,13.3,78,47,29,30.77,30.61,13,3,19,0.00
2013-4-23,38.1,34.4,31.3,35.1,30.8,26.2,95,87,77,30.61,30.20,8,4,0,0.00
2013-4-24,73.5,54.3,36.4,47.8,40.4,33.3,97,66,28,30.20,29.80,10,3,17,0.00
2013-4-25,53.0,45.6,37.2,48.4,31.5,18.7,93,61,27,30.23,29.80,15,6,28,0.04
2013-4-26,57.5,50.2,40.3,33.2,28.0,24.4,59,42,35,30.45,30.37,9,3,14,0.00
2013-4-27,60.8,48.2,38.3,36.0,29.2,23.4,70,49,26,30.45,30.32,5,2,0,0.00
2013-4-28,67.3,54.6,42.5,38.9,33.4,28.7,61,45,31,30.34,30.19,12,3,14,0.00
2013-4-29,60.5,51.1,42.6,43.7,34.6,28.7,72,54,42,30.26,30.22,11,2,16,0.00
2013-4-30,66.2,59.2,48.0,38.8,29.9,23.5,69,34,23,30.35,30.30,7,2,13,0.00
2013-5-1,69.2,58.4,43.5,41.6,29.8,17.7,68,36,20,30.48,30.35,7,2,12,0.00
2013-5-2,76.6,60.3,45.3,43.8,38.0,27.3,77,47,23,30.47,30.31,12,2,16,0.00
2013-5-3,63.5,51.4,38.7,41.8,36.1,26.1,77,57,38,30.51,30.38,9,2,17,0.00
2013-5-4,67.9,56.1,45.0,44.5,36.7,21.6,81,52,23,30.41,30.25,13,3,16,0.00
2013-5-5,66.3,51.8,36.0,39.7,31.3,26.0,80,48,25,30.32,30.23,11,2,12,0.00
2013-5-6,69.0,53.9,37.8,47.0,39.4,31.2,95,64,25,30.28,30.15,8,2,13,0.00
2013-5-7,72.5,59.1,46.3,53.8,47.4,37.4,95,69,28,30.18,30.11,10,2,13,0.00
2013-5-8,60.5,56.3,52.4,57.9,54.6,51.1,97,94,88,30.18,30.04,7,1,13,0.64
2013-5-9,64.1,56.3,51.2,55.9,53.4,50.3,98,91,66,30.04,29.89,9,1,0,1.03
2013-5-10,74.1,62.1,50.8,58.7,52.6,47.5,97,73,42,30.00,29.89,6,2,13,0.00
2013-5-11,64.2,59.4,56.1,61.3,57.0,53.3,97,92,79,29.89,29.69,9,2,14,1.16
2013-5-12,59.9,51.1,37.3,55.1,40.7,25.8,93,69,39,29.85,29.64,19,3,23,0.00
2013-5-13,45.7,40.4,36.1,30.7,27.5,24.1,79,61,44,30.10,29.85,14,3,18,0.00
2013-5-14,50.4,43.4,36.9,30.5,27.5,24.4,69,54,39,30.12,30.05,10,3,14,0.00
2013-5-15,59.0,47.9,37.2,50.1,37.7,25.8,96,70,41,30.10,29.71,10,3,19,0.11
2013-5-16,73.6,63.7,51.1,49.6,37.7,30.8,93,41,24,29.83,29.71,15,4,24,0.00
2013-5-17,63.3,54.3,43.7,40.3,37.0,32.3,80,54,32,30.25,29.84,14,4,20,0.00
2013-5-18,66.7,57.6,47.4,46.5,40.3,34.4,76,54,35,30.33,30.24,10,2,0,0.00
2013-5-19,58.4,52.0,44.8,52.4,48.8,42.7,97,89,75,30.35,30.21,7,2,12,0.16
2013-5-20,75.5,62.9,52.2,63.9,57.8,51.1,98,84,64,30.21,29.98,13,2,18,0.00
2013-5-21,84.3,68.0,51.8,68.0,61.1,51.0,98,81,46,30.01,29.82,10,2,15,0.85
2013-5-22,76.1,63.4,50.3,68.8,60.8,49.5,98,92,77,29.96,29.85,16,2,16,0.98
2013-5-23,75.9,66.5,62.8,66.9,63.9,61.6,97,92,71,29.87,29.75,13,3,16,0.78
2013-5-24,62.8,53.4,41.2,61.7,51.3,39.6,97,93,86,29.91,29.65,11,4,18,0.20
2013-5-25,43.3,40.6,37.4,41.2,38.7,35.0,95,93,89,29.91,29.84,16,6,26,1.01
2013-5-26,50.5,43.3,36.5,42.1,38.4,34.3,93,83,67,30.15,29.83,20,6,25,0.07
2013-5-27,65.6,53.6,41.4,41.1,37.2,31.5,82,57,32,30.22,30.15,14,3,23,0.00
2013-5-28,68.3,57.7,43.9,52.6,42.5,33.4,92,59,39,30.26,30.17,7,2,12,0.00
2013-5-29,69.8,59.5,54.0,66.4,57.9,52.5,98,94,86,30.17,29.98,8,1,25,0.92
2013-5-30,82.7,73.8,61.3,66.1,62.9,60.1,96,70,53,30.10,30.06,8,3,17,0.00
2013-5-31,88.2,77.7,65.3,69.2,62.9,56.8,90,64,35,30.11,29.95,9,2,14,0.00
2013-6-1,88.2,77.7,65.9,67.3,63.2,57.4,85,63,37,29.98,29.85,6,2,13,0.00
2013-6-2,84.8,74.3,64.7,68.8,66.0,62.3,96,77,54,29.86,29.70,16,3,19,0.40
2013-6-3,70.1,62.5,47.3,62.5,54.7,34.0,96,77,57,29.89,29.78,10,2,17,0.04
2013-6-4,66.8,56.0,45.9,47.0,41.7,35.8,75,59,42,30.14,29.89,13,4,23,0.00
2013-6-5,69.5,59.0,47.6,48.0,44.0,38.7,84,60,36,30.23,30.12,7,2,14,0.00
2013-6-6,66.8,58.0,49.8,53.4,48.8,44.0,95,72,49,30.20,30.10,7,2,16,0.21
2013-6-7,52.4,50.2,48.8,50.7,49.2,48.2,98,96,91,30.10,29.85,10,2,0,2.22
2013-6-8,67.6,57.3,48.1,60.2,53.6,47.6,98,88,72,30.06,29.73,8,3,17,0.94
2013-6-9,72.9,62.2,50.9,55.7,53.0,49.7,96,74,47,30.21,30.07,10,2,19,0.00
2013-6-10,65.6,59.1,55.7,57.6,55.3,51.7,97,88,69,30.21,29.98,8,1,12,1.50
2013-6-11,59.9,55.9,52.8,58.1,54.8,52.3,98,96,87,29.96,29.61,8,2,16,1.37
2013-6-12,65.3,58.6,54.2,53.6,51.2,48.7,91,77,59,29.87,29.62,18,5,27,0.00
2013-6-13,57.3,52.4,48.9,52.7,50.3,47.8,98,93,79,29.85,29.70,7,2,12,1.78
2013-6-14,69.1,57.9,47.6,57.6,50.4,46.2,98,78,48,29.87,29.70,7,2,13,0.66
2013-6-15,71.5,63.3,53.9,51.7,45.8,40.6,80,55,35,29.98,29.87,9,3,15,0.00
2013-6-16,70.6,63.0,52.8,59.3,51.3,35.2,82,66,46,29.98,29.73,11,2,17,0.00
2013-6-17,78.8,65.3,56.2,62.5,58.0,53.9,96,79,47,29.92,29.81,10,2,23,0.21
2013-6-18,64.3,58.2,53.5,61.3,56.3,51.1,97,93,86,29.97,29.90,4,1,0,0.45
2013-6-19,68.0,59.0,50.2,50.5,44.7,35.4,93,61,34,30.20,29.95,10,2,14,0.00
2013-6-20,74.9,62.9,49.6,53.9,47.2,35.4,83,59,31,30.29,30.20,7,2,13,0.00
2013-6-21,78.8,67.5,54.8,59.6,54.0,48.0,93,65,34,30.27,30.22,8,2,13,0.00
2013-6-22,81.3,71.4,60.5,64.3,59.9,56.3,89,69,45,30.23,30.10,10,2,14,0.00
2013-6-23,87.5,75.6,63.3,70.1,64.8,60.5,93,71,46,30.15,30.00,8,2,15,0.00
2013-6-24,86.1,74.1,63.2,71.7,66.3,61.7,95,78,54,30.03,29.92,12,2,21,0.27
2013-6-25,85.7,73.3,63.1,69.5,65.0,60.0,95,77,53,29.96,29.75,6,2,15,0.08
2013-6-26,76.7,70.5,64.8,68.4,65.5,63.2,97,85,70,29.84,29.75,7,2,20,0.00
2013-6-27,78.2,68.8,62.1,70.0,65.8,61.2,98,91,70,29.84,29.69,7,1,0,0.17
2013-6-28,80.0,71.0,62.0,69.9,66.2,61.4,99,86,63,29.69,29.46,10,2,15,2.38
2013-6-29,80.6,71.7,63.0,67.5,64.2,60.0,97,79,52,29.70,29.48,10,2,15,0.03
2013-6-30,80.3,71.3,63.2,71.6,67.2,62.3,97,88,68,29.93,29.69,9,1,14,0.46
2013-7-1,72.3,69.6,67.3,70.8,68.5,66.6,98,96,94,30.06,29.93,5,1,0,0.34
2013-7-2,80.3,72.8,68.8,73.1,70.2,67.8,97,92,76,30.15,30.05,7,2,12,0.15
2013-7-3,82.7,74.7,68.8,71.7,69.8,68.1,98,85,67,30.21,30.13,8,2,12,0.00
2013-7-4,87.1,78.2,67.7,72.9,70.1,66.8,98,78,55,30.21,30.10,9,2,14,0.00
2013-7-5,87.9,79.3,69.6,75.0,70.6,68.4,96,76,54,30.16,30.04,9,2,12,0.00
2013-7-6,82.6,76.2,68.8,71.6,68.9,65.4,92,79,61,30.09,30.01,7,2,15,0.00
2013-7-7,87.7,75.0,67.1,75.0,68.7,62.8,94,81,59,30.05,29.92,6,1,14,0.04
2013-7-8,80.3,74.3,69.5,69.8,67.9,65.3,97,81,63,30.04,29.92,8,2,16,0.00
2013-7-9,75.7,70.4,67.3,71.7,68.5,66.2,98,94,82,30.09,30.02,5,1,0,0.29
2013-7-10,80.7,72.3,68.0,74.5,70.0,67.4,98,93,79,30.04,29.79,7,1,12,0.22
2013-7-11,74.9,72.0,69.7,69.0,68.4,67.5,96,89,79,29.85,29.77,4,1,0,0.02
2013-7-13,70.5,66.8,60.9,68.1,64.2,56.3,97,92,82,30.33,30.28,3,1,0,0.02
2013-7-14,84.9,75.6,67.6,71.8,69.2,66.9,98,82,58,30.34,30.23,6,1,0,0.00
2013-7-15,85.8,76.9,69.3,70.9,68.9,65.8,95,78,53,30.23,30.14,8,2,13,0.00
2013-7-16,86.5,78.9,71.0,67.7,64.9,62.9,80,63,48,30.19,30.14,8,3,13,0.01
2013-7-17,88.4,79.6,69.8,70.9,68.0,62.8,84,69,50,30.19,30.02,7,2,0,0.00
2013-7-18,88.4,79.8,72.9,74.5,70.4,66.2,91,74,54,30.03,29.94,14,2,17,0.00
2013-7-19,89.5,80.9,71.3,74.7,70.5,64.9,90,72,55,29.94,29.72,11,3,19,0.01
2013-7-20,83.7,74.5,64.2,71.8,65.5,56.9,89,74,59,29.84,29.67,9,2,20,0.00
2013-7-21,78.9,69.2,63.3,63.8,60.2,57.9,85,74,51,29.99,29.84,5,1,0,0.00
2013-7-22,79.6,70.1,61.5,68.6,63.8,58.8,97,81,64,30.02,29.85,7,1,0,0.42
2013-7-23,78.9,68.9,64.8,71.8,66.3,64.2,98,92,68,29.85,29.56,10,1,14,1.49
2013-7-24,73.5,67.2,55.5,65.7,59.1,51.1,96,77,55,29.99,29.61,15,3,19,0.00
2013-7-25,66.0,58.1,49.5,58.6,51.9,44.9,92,80,67,30.12,30.00,6,2,12,0.00
2013-7-26,70.1,62.9,57.7,61.7,57.3,54.9,91,82,68,30.10,30.02,8,2,0,0.01
2013-7-27,79.5,67.2,56.6,64.0,58.2,54.5,94,75,47,30.07,30.00,7,2,12,0.00
2013-7-28,75.9,66.2,59.3,66.2,62.7,58.4,98,89,72,30.01,29.97,4,1,0,0.00
2013-7-29,78.8,68.8,63.4,66.0,61.4,52.3,98,79,51,30.09,29.98,5,1,12,0.00
2013-7-30,73.0,65.6,58.4,58.1,55.1,51.4,86,70,53,30.14,30.08,8,3,15,0.00
2013-7-31,75.2,66.9,56.6,62.9,57.5,53.6,90,73,52,30.17,30.06,5,1,0,0.00
2013-8-1,73.0,63.0,56.2,65.5,59.9,54.7,97,90,76,30.06,29.86,10,2,16,0.50
2013-8-2,72.8,63.5,59.6,62.0,60.1,56.7,97,89,57,29.89,29.81,7,2,14,0.00
2013-8-3,74.5,66.8,57.6,59.9,55.4,45.8,93,69,46,29.89,29.82,9,3,13,0.01
2013-8-4,70.5,62.2,55.0,57.6,53.1,49.6,92,73,54,29.95,29.84,11,3,18,0.27
2013-8-5,68.8,58.8,52.4,50.8,47.6,43.5,89,68,43,30.08,29.94,12,3,18,0.00
2013-8-6,72.7,61.5,50.6,56.2,51.2,45.9,87,71,44,30.15,30.09,6,2,0,0.00
2013-8-7,73.0,64.4,57.3,61.0,57.3,55.0,94,79,55,30.18,30.09,9,2,13,0.00
2013-8-8,77.5,71.9,62.9,70.0,67.5,61.4,97,86,75,30.08,30.00,11,2,0,0.07
2013-8-9,76.1,70.2,66.6,72.3,68.5,65.4,97,94,88,30.01,29.77,10,1,17,2.72
2013-8-10,73.6,69.1,61.9,65.0,55.1,47.5,95,63,44,30.00,29.84,13,3,19,0.00
2013-8-17,74.7,68.5,60.3,62.7,57.3,53.0,84,68,50,30.31,30.26,4,1,0,0.00
2013-8-18,74.2,65.8,57.4,62.6,57.9,53.5,92,77,54,30.29,30.11,5,1,0,0.00
2013-8-19,74.4,66.5,59.5,61.9,58.8,55.5,92,77,57,30.11,30.01,9,1,13,0.00
2013-8-20,78.1,69.2,59.6,61.8,57.9,53.3,88,68,52,30.14,30.03,13,3,14,0.00
2013-8-21,81.0,71.1,62.3,64.7,61.2,57.5,89,72,47,30.18,30.04,7,2,12,0.00
2013-8-22,82.3,72.9,61.6,67.6,63.9,59.3,94,75,50,30.06,29.84,5,1,12,0.01
2013-8-23,71.4,65.4,56.2,64.4,55.6,45.6,90,71,53,30.17,29.86,9,2,0,0.00
2013-8-24,72.6,61.4,50.6,54.5,49.9,46.1,86,68,44,30.37,30.17,4,1,0,0.00
2013-8-25,76.1,65.5,55.3,57.5,52.9,48.6,83,66,41,30.40,30.20,6,2,12,0.00
2013-8-26,74.7,66.5,59.2,65.3,61.2,54.7,96,84,69,30.20,29.90,8,2,0,0.32
2013-8-27,80.3,69.8,64.3,69.8,66.0,63.3,97,88,66,29.92,29.85,6,1,0,0.07
2013-8-28,80.7,70.5,63.9,71.1,66.1,62.4,97,87,66,29.96,29.85,5,1,0,0.02
2013-8-29,70.0,63.6,60.8,64.8,61.6,59.9,98,93,80,30.07,29.94,13,1,19,0.01
2013-8-30,80.0,68.0,58.5,66.8,63.2,57.9,99,86,59,30.04,29.84,5,1,0,0.00
2013-8-31,72.8,68.3,66.5,69.7,66.6,65.1,98,94,89,29.84,29.78,5,1,0,0.41
2013-9-1,77.3,70.4,65.3,72.5,68.5,64.4,98,94,80,29.88,29.81,8,1,0,0.05
2013-9-2,75.9,69.9,64.7,70.7,68.0,63.8,98,94,79,29.84,29.71,4,1,0,0.29
2013-9-3,70.6,65.4,58.5,62.8,58.6,54.5,97,79,67,29.86,29.76,6,2,17,0.00
2013-9-4,73.1,63.9,56.6,56.5,54.2,50.2,89,73,46,29.95,29.84,11,2,14,0.00
2013-9-5,65.2,59.9,48.5,57.7,48.9,39.2,87,68,39,30.18,29.88,8,2,15,0.00
2013-9-6,63.6,52.4,41.9,46.1,40.3,35.3,84,65,43,30.29,30.13,5,1,0,0.00
2013-9-7,74.1,60.9,48.2,54.9,48.0,42.5,83,65,34,30.13,29.88,9,1,13,0.00
2013-9-8,64.9,58.7,47.5,59.3,49.9,39.2,91,74,49,30.13,29.79,11,3,19,0.00
2013-9-9,66.2,54.7,43.0,50.2,43.7,37.6,86,68,48,30.26,30.13,7,1,0,0.00
2013-9-10,74.6,64.9,54.5,70.3,62.5,50.4,98,92,82,30.18,30.04,9,2,0,0.45
2013-9-11,89.4,77.7,66.1,75.2,70.7,64.0,97,81,55,30.09,29.95,10,2,19,0.77
2013-9-12,80.6,69.9,63.7,72.9,66.3,62.5,97,89,74,29.95,29.67,15,2,16,0.49
2013-9-13,71.8,61.9,52.7,63.0,58.1,48.9,97,88,66,29.82,29.62,11,2,15,0.10
2013-9-14,57.0,52.1,47.7,50.3,47.6,45.1,94,85,74,30.10,29.81,13,3,18,0.00
2013-9-15,65.1,54.0,42.3,53.2,46.8,40.3,93,78,56,30.22,30.09,7,1,12,0.02
2013-9-16,61.5,53.1,40.8,51.8,46.5,33.8,90,79,66,30.30,30.05,16,3,17,0.03
2013-9-17,59.1,47.7,39.1,43.6,37.8,33.3,86,70,46,30.47,30.30,8,2,17,0.02
2013-9-18,68.5,54.9,43.2,51.0,44.4,39.9,89,70,42,30.38,30.19,5,1,0,0.07
2013-9-19,71.6,59.9,49.8,58.0,50.9,44.6,88,73,56,30.19,30.08,5,2,0,0.01
2013-9-20,68.9,58.2,51.8,59.1,52.3,48.5,93,81,65,30.10,30.00,4,2,0,0.01
2013-9-21,64.1,58.0,51.7,62.2,56.3,50.3,98,94,87,30.02,29.68,14,2,18,0.20
2013-9-22,63.9,54.4,46.0,62.7,50.5,39.5,96,87,70,29.90,29.62,11,2,20,1.23
2013-9-23,54.1,46.4,38.8,42.5,39.6,37.1,95,78,61,30.07,29.89,12,3,19,0.00
2013-9-24,59.6,48.0,35.7,45.3,40.2,34.1,95,76,49,30.07,29.90,15,2,18,0.00
2013-9-25,66.7,55.2,44.3,54.6,47.1,41.2,89,75,58,30.01,29.91,4,1,0,0.00
2013-9-26,61.2,52.4,47.3,48.8,46.5,44.2,93,81,61,30.17,30.02,8,1,0,0.00
2013-9-27,54.0,48.7,46.4,50.2,46.4,44.5,96,92,85,30.29,30.17,4,0,0,0.00
2013-9-28,55.0,54.0,52.5,51.5,51.1,50.2,92,90,88,30.31,30.29,4,1,0,0.00
2013-9-29,61.6,52.0,45.8,54.7,48.5,43.8,97,88,66,30.29,30.12,6,1,0,0.01
2013-9-30,66.8,55.0,45.1,53.1,48.5,43.4,95,80,58,30.14,30.00,6,1,0,0.00
2013-10-1,72.7,61.8,52.6,57.4,52.7,48.5,90,73,54,30.02,29.92,10,2,14,0.00
2013-10-2,71.1,63.8,55.3,60.2,55.1,49.7,92,74,59,30.01,29.89,12,3,21,0.00
2013-10-3,71.9,60.8,51.2,52.7,47.1,39.3,81,63,31,30.12,30.01,6,1,0,0.00
2013-10-4,58.9,56.9,55.4,55.6,51.3,47.7,97,82,68,30.11,30.06,2,0,0,0.32
2013-10-5,62.3,57.0,54.6,58.1,55.2,52.9,97,94,84,30.14,30.08,1,0,0,0.15
2013-10-6,56.5,54.7,50.8,55.9,54.2,50.3,98,98,98,30.20,30.11,5,1,0,0.55
2013-10-7,67.7,59.1,49.4,65.4,57.6,46.6,99,95,85,30.03,29.77,32,3,32,0.82
2013-10-8,58.2,50.5,43.2,46.4,40.7,35.7,92,71,44,30.41,29.95,13,3,19,0.00
2013-10-9,57.4,46.5,38.6,43.2,39.2,35.1,93,77,53,30.53,30.41,8,2,0,0.00
2013-10-10,53.0,47.4,41.2,44.3,41.5,37.6,96,81,63,30.41,30.23,3,1,0,0.00
2013-10-11,61.2,52.3,46.6,50.8,42.6,39.2,82,70,50,30.23,30.15,4,0,0,0.00
2013-10-12,55.1,51.5,49.7,47.7,43.6,41.7,82,74,68,30.29,30.19,5,1,0,0.00
2013-10-14,63.6,57.0,42.1,53.1,49.5,41.1,97,77,64,30.39,30.26,5,1,0,0.00
2013-10-15,62.6,57.0,50.1,54.6,52.8,48.2,94,86,73,30.29,30.16,4,1,0,0.00
2013-10-16,59.4,51.5,46.9,53.3,48.4,45.2,97,89,76,30.16,29.92,4,0,0,0.00
2013-10-17,66.9,58.0,51.1,57.3,51.1,46.5,98,80,50,29.92,29.68,10,1,13,0.00
2013-10-18,59.3,54.5,46.5,58.0,45.5,36.3,96,73,49,29.93,29.61,12,3,20,0.14
2013-10-19,61.0,51.2,41.2,46.2,40.7,37.6,90,68,48,29.99,29.75,11,2,15,0.05
2013-10-20,54.0,46.7,39.8,46.7,36.9,31.1,95,70,42,30.06,29.72,11,3,22,0.00
2013-10-21,61.2,48.9,37.8,40.5,37.3,33.9,87,66,43,30.14,29.99,8,1,13,0.00
2013-10-22,55.7,46.8,38.9,49.3,41.5,30.2,90,82,67,29.98,29.75,8,2,16,0.02
2013-10-23,46.7,41.0,33.2,33.5,30.5,28.5,84,66,51,29.83,29.64,8,2,12,0.00
2013-10-24,45.4,39.0,29.4,33.3,28.8,24.5,91,68,46,29.94,29.70,11,2,18,0.00
2013-10-25,41.9,36.7,30.5,33.0,28.8,25.4,93,74,53,30.19,29.95,13,3,22,0.00
2013-10-26,47.5,40.2,31.7,33.2,29.1,24.9,90,66,43,30.19,29.89,12,2,22,0.00
2013-10-27,46.2,41.0,32.9,33.4,30.8,28.3,83,67,52,30.10,29.83,12,2,18,0.00
2013-10-28,51.0,38.7,30.7,35.0,29.4,21.4,91,71,47,30.39,30.10,13,2,20,0.00
2013-10-29,42.6,33.4,26.5,24.3,20.5,19.0,74,60,41,30.49,30.39,9,1,0,0.00
2013-10-30,50.3,39.4,31.2,39.1,31.5,16.3,88,74,51,30.40,30.25,5,1,13,0.02
2013-10-31,57.2,47.6,37.6,56.1,46.3,34.9,98,95,85,30.28,29.78,8,2,15,0.77
2013-11-1,59.9,57.6,55.8,58.2,56.0,54.0,95,95,93,29.77,29.56,15,6,19,0.23
2013-11-5,46.1,41.1,37.8,34.5,32.5,29.4,86,72,55,30.65,30.54,5,1,12,0.00
2013-11-6,54.6,45.9,36.9,45.4,40.3,34.0,93,81,64,30.53,30.03,11,2,19,0.00
2013-11-7,56.3,46.8,34.9,52.4,41.3,23.2,93,81,62,30.02,29.75,17,5,20,0.15
2013-11-8,39.4,33.3,27.8,31.9,25.8,21.3,93,74,55,30.15,29.86,17,3,26,0.04
2013-11-9,32.0,29.7,27.5,22.9,21.4,20.6,76,71,68,30.24,30.15,8,3,15,0.00
2013-11-10,40.3,38.2,36.0,32.4,29.4,26.2,75,70,65,29.94,29.86,20,7,27,0.00
2013-11-11,43.3,37.3,33.4,28.1,25.9,24.5,72,64,50,30.13,29.94,20,6,26,0.00
2013-11-14,36.4,34.8,33.3,21.8,17.9,14.3,60,50,40,30.17,30.15,5,2,12,0.00
2013-11-15,57.0,43.8,35.1,24.5,17.3,11.7,47,35,17,30.23,30.15,7,2,0,0.01
2013-11-16,55.2,46.8,40.4,35.6,27.4,18.5,78,48,34,30.33,30.21,8,1,0,0.00
2013-11-17,54.5,45.7,38.3,53.9,44.1,34.7,98,94,77,30.31,29.83,7,1,13,0.16
2013-11-18,56.9,51.6,38.9,55.8,42.7,28.6,98,73,49,29.83,29.55,13,3,29,0.52
2013-11-19,38.3,31.7,23.4,28.7,20.5,15.7,74,63,55,30.36,29.72,19,7,31,0.00
2013-11-20,35.5,27.0,19.9,17.0,13.7,10.2,74,58,36,30.68,30.36,7,2,14,0.00
2013-11-21,42.4,33.3,23.2,29.2,20.1,11.1,73,59,37,30.69,30.42,9,1,0,0.00
2013-11-22,45.2,39.8,35.2,43.2,37.8,28.6,97,93,74,30.42,29.88,7,0,19,0.09
2013-11-23,43.0,30.8,19.2,39.7,23.0,12.0,90,73,56,30.00,29.84,14,5,25,0.00
2013-11-24,18.8,15.2,10.2,14.6,2.8,-2.9,84,59,38,30.30,29.88,23,8,36,0.00
2013-11-25,27.3,19.2,10.7,13.6,5.9,-5.7,65,55,41,30.45,30.30,14,3,23,0.00
2013-11-26,32.0,27.8,23.4,29.3,23.2,11.3,96,84,53,30.36,30.05,5,1,0,0.01
2013-11-27,45.4,35.2,30.2,44.9,33.8,25.8,98,95,83,30.05,29.36,23,3,29,0.33
2013-11-28,29.7,20.5,13.9,26.0,12.3,6.7,86,71,50,30.48,29.55,13,4,25,0.00
2013-11-29,25.3,18.9,13.6,13.2,11.8,10.2,88,74,54,30.79,30.48,13,2,16,0.00
2013-11-30,24.8,18.0,10.3,18.1,8.3,5.4,84,66,44,30.84,30.47,6,1,0,0.00
2013-12-1,36.6,31.0,23.4,33.1,28.5,18.1,96,91,76,30.47,30.08,3,0,0,0.01
2013-12-2,36.8,32.9,29.5,35.2,31.9,28.8,98,96,93,30.08,29.95,2,0,0,0.01
2013-12-3,43.1,34.2,27.0,36.6,31.0,26.3,98,88,72,30.02,29.93,7,1,0,0.01
2013-12-4,42.7,33.1,28.0,30.5,27.6,23.8,93,81,48,30.22,30.01,6,1,0,0.00
2013-12-5,50.3,42.5,34.2,49.8,40.8,30.2,98,94,82,30.22,29.94,9,1,15,0.16
2013-12-6,51.2,39.1,30.1,50.7,36.6,29.1,98,91,76,30.17,29.90,16,2,18,0.10
2013-12-7,30.6,27.7,23.5,28.6,22.4,17.7,95,80,64,30.50,30.10,17,3,19,0.00
2013-12-8,25.5,23.1,19.8,18.3,15.0,12.0,80,71,58,30.62,30.49,13,1,15,0.00
2013-12-9,33.5,26.4,19.9,31.9,25.0,17.0,98,94,80,30.51,29.96,7,1,14,0.00
2013-12-10,32.5,25.7,16.8,29.9,21.7,12.6,93,84,72,30.02,29.84,7,1,14,0.00
2013-12-11,24.9,20.0,16.1,17.3,13.9,9.5,89,77,66,30.24,30.02,11,2,17,0.00
2013-12-12,19.3,12.8,7.4,14.2,4.2,-0.3,86,69,50,30.33,30.09,14,2,22,0.00
2013-12-13,22.2,15.1,7.9,18.1,9.9,3.9,87,80,67,30.43,30.03,8,1,13,0.00
2013-12-14,10.1,6.1,3.1,7.5,1.9,-1.3,90,82,70,30.63,30.23,7,1,0,0.00
2013-12-15,26.9,20.1,10.1,25.3,17.3,7.8,94,89,79,30.20,29.58,10,3,22,0.00
2013-12-16,21.5,16.3,7.3,18.6,8.5,1.9,91,71,57,30.23,29.77,11,2,25,0.00
2013-12-17,16.2,7.8,2.0,13.3,4.5,-0.7,90,86,74,30.27,30.06,5,0,0,0.00
2013-12-18,25.4,21.8,16.3,19.8,17.6,13.4,91,84,75,30.11,30.01,10,1,18,0.00
2013-12-19,33.9,26.6,19.2,27.2,21.4,16.2,89,81,62,30.15,30.05,11,2,14,0.04
2013-12-20,45.2,37.8,30.2,39.0,32.3,25.9,92,81,58,30.15,29.96,4,1,0,0.39
2013-12-21,56.3,46.7,37.1,49.1,42.3,33.0,97,85,71,29.98,29.88,8,2,0,0.07
2013-12-22,60.3,55.2,49.2,57.9,53.2,48.0,98,93,83,29.94,29.68,15,2,18,0.08
2013-12-23,52.2,42.7,30.7,51.1,41.3,25.4,98,95,80,30.14,29.92,16,2,16,0.57
2013-12-24,30.6,24.2,13.8,25.5,16.0,5.8,82,71,57,30.29,30.10,13,4,21,0.00
2013-12-25,20.1,13.2,5.9,6.9,3.1,-0.7,76,64,48,30.56,30.30,15,2,22,0.00
2013-12-26,27.3,21.0,15.5,23.4,16.1,5.5,90,81,64,30.51,30.16,8,1,12,0.00
2013-12-27,28.6,25.0,18.0,21.6,18.2,14.8,88,75,61,30.32,30.25,9,2,15,0.00
2013-12-28,41.3,31.4,21.6,29.1,24.8,18.6,89,77,56,30.26,30.07,7,2,21,0.04
2013-12-29,41.1,36.0,32.7,34.2,30.9,27.7,97,82,63,30.07,29.56,9,1,0,1.04
2013-12-30,35.4,23.6,7.3,33.6,17.2,2.1,95,76,58,30.19,29.63,12,4,24,0.08
2013-12-31,19.3,13.0,4.4,14.8,6.4,-0.4,90,74,62,30.24,30.07,22,1,22,0.00
2014-1-1,19.7,14.7,11.6,10.5,7.4,2.1,85,73,60,30.42,30.22,7,1,15,0.00
2014-1-2,13.8,7.7,1.6,10.8,5.1,-1.2,90,89,85,30.38,29.91,15,4,18,0.00